TimePDT,TemperatureF,Dew PointF,Humidity,Sea Level PressureIn,VisibilityMPH,Wind Direction,Wind SpeedMPH,Gust SpeedMPH,PrecipitationIn,Events,Conditions,WindDirDegrees,DateUTC
12:15 AM,60.8,53.6,77,30.17,10.0,NNE,3.5,-,N/A,,Overcast,20,2013-07-31 07:15:00
12:35 AM,60.8,53.6,77,30.17,10.0,North,3.5,-,N/A,,Overcast,360,2013-07-31 07:35:00
12:55 AM,57.2,55.4,94,30.17,10.0,NNW,4.6,-,N/A,,Overcast,330,2013-07-31 07:55:00
1:15 AM,57.2,55.4,94,30.17,10.0,North,3.5,-,N/A,,Overcast,350,2013-07-31 08:15:00
1:35 AM,57.2,53.6,88,30.17,10.0,Calm,Calm,-,N/A,,Overcast,0,2013-07-31 08:35:00
1:55 AM,57.2,55.4,94,30.16,10.0,Calm,Calm,-,N/A,,Overcast,0,2013-07-31 08:55:00
2:15 AM,59.0,55.4,88,30.16,10.0,North,3.5,-,N/A,,Overcast,360,2013-07-31 09:15:00
2:35 AM,59.0,55.4,88,30.17,10.0,Calm,Calm,-,N/A,,Overcast,0,2013-07-31 09:35:00
2:55 AM,59.0,55.4,88,30.16,10.0,Calm,Calm,-,N/A,,Overcast,0,2013-07-31 09:55:00
3:15 AM,59.0,55.4,88,30.16,10.0,North,3.5,-,N/A,,Overcast,10,2013-07-31 10:15:00
3:35 AM,59.0,55.4,88,30.15,10.0,North,4.6,-,N/A,,Overcast,10,2013-07-31 10:35:00
3:55 AM,57.2,55.4,94,30.16,10.0,Calm,Calm,-,N/A,,Overcast,0,2013-07-31 10:55:00
4:15 AM,57.2,55.4,94,30.15,9.0,North,4.6,-,N/A,,Overcast,360,2013-07-31 11:15:00
4:35 AM,57.2,55.4,94,30.15,10.0,North,4.6,-,N/A,,Overcast,360,2013-07-31 11:35:00
4:55 AM,57.2,55.4,94,30.14,10.0,NNW,3.5,-,N/A,,Overcast,340,2013-07-31 11:55:00
5:15 AM,57.2,55.4,94,30.15,10.0,West,5.8,-,N/A,,Overcast,270,2013-07-31 12:15:00
5:35 AM,57.2,55.4,94,30.13,5.0,North,8.1,-,N/A,,Overcast,360,2013-07-31 12:35:00
5:55 AM,55.4,55.4,100,30.15,10.0,Calm,Calm,-,N/A,,Overcast,0,2013-07-31 12:55:00
6:15 AM,57.2,55.4,94,30.13,6.0,NNW,5.8,-,N/A,,Overcast,340,2013-07-31 13:15:00
6:35 AM,57.2,55.4,94,30.16,5.0,WSW,4.6,-,N/A,,Overcast,250,2013-07-31 13:35:00
6:55 AM,55.4,53.6,94,30.15,2.0,West,5.8,-,N/A,,Overcast,280,2013-07-31 13:55:00
7:15 AM,55.4,53.6,94,30.14,2.0,North,3.5,-,N/A,,Overcast,350,2013-07-31 14:15:00
7:35 AM,55.4,53.6,94,30.14,2.0,NNW,5.8,-,N/A,,Overcast,330,2013-07-31 14:35:00
7:55 AM,57.2,55.4,94,30.14,2.0,Calm,Calm,-,N/A,,Overcast,0,2013-07-31 14:55:00
8:15 AM,-9999,-9999,N/A,30.13,3.0,NNW,5.8,-,N/A,,Overcast,330,2013-07-31 15:15:00
8:35 AM,-9999,-9999,N/A,30.14,3.0,WNW,4.6,-,N/A,,Overcast,290,2013-07-31 15:35:00
8:55 AM,-9999,-9999,N/A,30.14,3.0,West,5.8,-,N/A,,Overcast,270,2013-07-31 15:55:00
9:15 AM,-9999,-9999,N/A,30.13,10.0,NW,5.8,-,N/A,,Overcast,320,2013-07-31 16:15:00
9:35 AM,-9999,-9999,N/A,30.13,4.0,NNW,6.9,-,N/A,,Overcast,340,2013-07-31 16:35:00
9:55 AM,-9999,-9999,N/A,30.13,4.0,WNW,5.8,-,N/A,,Overcast,290,2013-07-31 16:55:00
10:15 AM,-9999,-9999,N/A,30.14,10.0,West,5.8,-,N/A,,Overcast,270,2013-07-31 17:15:00
10:35 AM,-9999,-9999,N/A,30.14,3.0,West,8.1,-,N/A,,Overcast,280,2013-07-31 17:35:00
10:55 AM,-9999,-9999,N/A,30.14,1.5,WNW,4.6,-,N/A,,Overcast,290,2013-07-31 17:55:00
11:15 AM,-9999,-9999,N/A,30.13,1.5,WNW,4.6,-,N/A,,Overcast,300,2013-07-31 18:15:00
11:35 AM,-9999,-9999,N/A,30.14,1.5,West,5.8,-,N/A,,Overcast,280,2013-07-31 18:35:00
11:55 AM,-9999,-9999,N/A,30.14,1.5,WNW,4.6,-,N/A,,Overcast,300,2013-07-31 18:55:00
12:15 PM,-9999,-9999,N/A,30.14,6.0,WNW,5.8,-,N/A,,Overcast,290,2013-07-31 19:15:00
12:35 PM,-9999,-9999,N/A,30.14,3.0,West,4.6,-,N/A,,Overcast,280,2013-07-31 19:35:00
12:55 PM,-9999,-9999,N/A,30.14,9.0,West,3.5,-,N/A,,Overcast,280,2013-07-31 19:55:00
1:15 PM,-9999,-9999,N/A,30.14,4.0,NNW,4.6,-,N/A,,Overcast,330,2013-07-31 20:15:00
1:35 PM,-9999,-9999,N/A,30.14,2.0,WNW,5.8,-,N/A,,Overcast,290,2013-07-31 20:35:00
1:55 PM,-9999,-9999,N/A,30.15,2.0,WNW,6.9,-,N/A,,Overcast,300,2013-07-31 20:55:00
2:15 PM,-9999,-9999,N/A,30.15,3.0,WNW,5.8,-,N/A,,Overcast,290,2013-07-31 21:15:00
2:35 PM,-9999,-9999,N/A,30.15,3.0,West,8.1,-,N/A,,Overcast,270,2013-07-31 21:35:00
2:55 PM,-9999,-9999,N/A,30.15,2.5,West,6.9,-,N/A,,Overcast,280,2013-07-31 21:55:00
3:15 PM,-9999,-9999,N/A,30.15,3.0,West,5.8,-,N/A,,Overcast,280,2013-07-31 22:15:00
3:35 PM,-9999,-9999,N/A,30.15,2.0,West,6.9,-,N/A,,Overcast,270,2013-07-31 22:35:00
3:55 PM,-9999,-9999,N/A,30.15,2.0,West,5.8,-,N/A,,Overcast,280,2013-07-31 22:55:00
4:15 PM,-9999,-9999,N/A,30.15,4.0,West,5.8,-,N/A,,Overcast,280,2013-07-31 23:15:00
4:35 PM,-9999,-9999,N/A,30.15,7.0,West,5.8,-,N/A,,Overcast,280,2013-07-31 23:35:00
4:55 PM,-9999,-9999,N/A,30.15,10.0,WNW,5.8,-,N/A,,Overcast,290,2013-07-31 23:55:00
5:15 PM,-9999,-9999,N/A,30.15,8.0,West,6.9,-,N/A,,Overcast,280,2013-08-01 00:15:00
5:35 PM,-9999,-9999,N/A,30.15,5.0,West,4.6,-,N/A,,Overcast,280,2013-08-01 00:35:00
5:55 PM,-9999,-9999,N/A,30.15,5.0,WNW,5.8,-,N/A,,Overcast,290,2013-08-01 00:55:00
6:15 PM,-9999,-9999,N/A,30.14,7.0,West,4.6,-,N/A,,Overcast,270,2013-08-01 01:15:00
6:35 PM,-9999,-9999,N/A,30.14,8.0,West,4.6,-,N/A,,Overcast,280,2013-08-01 01:35:00
6:55 PM,-9999,-9999,N/A,30.14,10.0,West,4.6,-,N/A,,Overcast,280,2013-08-01 01:55:00
7:15 PM,-9999,-9999,N/A,30.14,10.0,West,3.5,-,N/A,,Overcast,280,2013-08-01 02:15:00
7:35 PM,-9999,-9999,N/A,30.14,10.0,West,4.6,-,N/A,,Overcast,280,2013-08-01 02:35:00
7:55 PM,-9999,-9999,N/A,30.14,10.0,West,4.6,-,N/A,,Overcast,280,2013-08-01 02:55:00
8:15 PM,-9999,-9999,N/A,30.14,10.0,West,3.5,-,N/A,,Overcast,280,2013-08-01 03:15:00
8:35 PM,-9999,-9999,N/A,30.14,10.0,Calm,Calm,-,N/A,,Overcast,0,2013-08-01 03:35:00
8:55 PM,-9999,-9999,N/A,30.13,10.0,Calm,Calm,-,N/A,,Overcast,0,2013-08-01 03:55:00
9:15 PM,-9999,-9999,N/A,30.13,10.0,Calm,Calm,-,N/A,,Overcast,0,2013-08-01 04:15:00
9:35 PM,-9999,-9999,N/A,30.13,10.0,Calm,Calm,-,N/A,,Overcast,0,2013-08-01 04:35:00
9:55 PM,-9999,-9999,N/A,30.14,9.0,Calm,Calm,-,N/A,,Overcast,0,2013-08-01 04:55:00
10:15 PM,-9999,-9999,N/A,30.14,10.0,Calm,Calm,-,N/A,,Overcast,0,2013-08-01 05:15:00
10:35 PM,-9999,-9999,N/A,30.14,10.0,Calm,Calm,-,N/A,,Overcast,0,2013-08-01 05:35:00
10:55 PM,-9999,-9999,N/A,30.13,10.0,Calm,Calm,-,N/A,,Overcast,0,2013-08-01 05:55:00
11:15 PM,-9999,-9999,N/A,30.13,10.0,Calm,Calm,-,N/A,,Overcast,0,2013-08-01 06:15:00
11:35 PM,-9999,-9999,N/A,30.13,10.0,Calm,Calm,-,N/A,,Overcast,0,2013-08-01 06:35:00
11:55 PM,-9999,-9999,N/A,30.13,10.0,Calm,Calm,-,N/A,,Overcast,0,2013-08-01 06:55:00